Regional Weather Roundup
Issued by NWS

Home | Current Version | Previous Version | Graphics & Text | Print | Product List | Glossary On
Versions: 1 2 3 4 5 6 7 8 9 10 11 12 13 14 15 16 17 18 19 20 21 22 23 24 25 26 27
000
ASUS45 KSLC 191810
RWRUT

UTAH REGIONAL WEATHER ROUNDUP
NATIONAL WEATHER SERVICE SALT LAKE CITY UT
1200 PM MDT SAT APR 19 2014

UTZ001>011-023>025-191900-

NORTHERN UTAH

CITY           SKY/WX    TMP DP  RH WIND       PRES   REMARKS
HILL AFB       MOSUNNY   63  39  41 S10       30.04S
LOGAN          SUNNY     55  38  52 VRB5      30.04F
OGDEN          MOSUNNY   64  39  39 S7        30.03R
PROVO AIRPORT  MOSUNNY   64  43  45 SW5       30.05S
SALT LAKE CITY PTSUNNY   64  40  41 CALM      30.03S
VERNAL         PTSUNNY   65  33  30 S7        30.05S
WENDOVER       MOSUNNY   63  32  31 SE6       30.04R
HEBER CITY     PTSUNNY   64  32  29 SW17G24   30.04S
WEST JORDAN    PTSUNNY   63  45  51 NW8       30.04S

$$

UTZ012>022-026-027-191900-

SOUTHERN UTAH

CITY           SKY/WX    TMP DP  RH WIND       PRES   REMARKS
BRYCE CANYON   MOSUNNY   56  29  35 CALM      30.16S
CEDAR CITY     MOSUNNY   63  29  27 CALM      30.07F
MILFORD        SUNNY     66  31  27 S10G25    30.04F
MOAB/CYNLANDS  PTSUNNY   61  45  55 E8        30.07F
PRICE          MOSUNNY   60  37  42 VRB7      30.10S
ST GEORGE      PTCLDY    70  36  28 CALM      30.02F
KANAB            N/A     64  34  32 NE7       30.10F

$$

REGIONAL REPORTS     COLORADO/ARIZONA

CITY           SKY/WX    TMP DP  RH WIND       PRES   REMARKS
CRAIG, CO      LGT RAIN  56  37  49 S12       30.12R
GRAND JUNCTION CLOUDY    57  47  69 NW7       30.11F
RIFLE          CLOUDY    56  39  53 W22       30.10S
MONTROSE       CLOUDY    58  40  51 NW9       30.13F
CORTEZ         PTSUNNY   61  41  47 S10       30.14S
PAGE, AZ       MOSUNNY   64  37  36 N6        30.06F
GRAND CANYON   MOSUNNY   58  32  37 S7G17     30.14R
KINGMAN        SUNNY     71  38  29 E6        30.02S
FLAGSTAFF      MOSUNNY   57  30  35 SW10      30.15F

$$

REGIONAL REPORTS    NEVADA/IDAHO/WYOMING

CITY           SKY/WX    TMP DP  RH WIND       PRES   REMARKS
LAS VEGAS, NV  MOSUNNY   76  38  25 CALM      29.95S
ELY            SUNNY     62  30  29 VRB6      30.07F
ELKO           MOSUNNY   62  32  32 N3        30.03F
POCATELLO, ID  SUNNY     58   7  13 VRB3      30.04F
BURLEY         SUNNY     61  27  27 CALM      30.00S
EVANSTON, WY   MOSUNNY   56  32  40 W12       30.11R
ROCK SPRINGS   MOSUNNY   58  25  28 S6        30.09S

$$



USA.gov is the U.S. government's official web portal to all federal, state and local government web resources and services.